STARLINK-36883, 67975

Orbit data source: Space-Track

STARLINK-36883, 67975 is a payload satellite owned by SpaceX/Seattle (US) in SSO that was launched on Wed, 25 Feb 2026 UTC via an FALCON 9 launch vehicle from the Air Force Western Test Range (AFWTR). Payload-class satellites include a variety of spacecraft equipped with specific instruments for various scientific and technological missions. These include communications satellites like Starlink; space stations such as the ISS; scientific satellites like the Hubble; Earth observation satellites from companies like Planet Labs, Umbra, and HawkEye 360; GPS; miniature CubeSats for education and research; and military/defense satellites.

Loading next visibility...
Identifier
67975, 2026-038Q
Orbit
SSO
Country
Flag of USUS
Related business
Manufacturer
SpaceX/Seattle
Mission
Operational Commercial Communications
Bus & Motor
STARLINK V2MO, Unknown motor
Mass
575 kg wet, ~530 kg dry
Launch date (UTC)
2026-02-25 (4 months ago)
Launch vehicle
FALCON 9
Launch site
Air Force Western Test Range (AFWTR)
Object type
Payload
Rocket body
Debris
Shape & HBR
Box + 2 Pan, 17.7 m
Radar Cross Section
36.964 m², Large (>1 m²)

Expand to show TLE details & history
Last TLE update: 20 hours ago

TLE from 20 hours ago
0 STARLINK-36883
1 67975U 26038Q   26171.01724739  .00019832  00000-0  61480-3 0  9998
2 67975  97.2841 180.7182 0001794  92.9739 267.1709 15.33456095 18927
Epoch: 2026-06-20T00:24Z
TLE epoch observation values (Epoch: 2026-06-20T00:24:50.174Z)
Latitude
-0.00003°
Longitude
-93.72877°
Altitude
468.683 km
Speed
7.632 km/s
True Right ascension
12h 02m 52s
True Declination
0° 00' 00"
Sunlit
Object was in daylight at epoch
Visualization orbit readout
Latitude
Unknown
Longitude
Unknown
Altitude
Unknown
Speed
Unknown
Apparent Right ascension
Unknown
Apparent Declination
Unknown
Sunlit
N/A
Visualization observer readout
Local Sidereal Time
07:12:35
Azimuth
Unknown
Elevation
Unknown
Doppler factor
Unknown
Orbital elements
Apogee altitude
463.68 km
Perigee altitude
461.226 km
Semi-major axis
6,840.59 km
Eccentricity
0.00018
Inclination
97.2841°
RAAN
180.7182°
Arg. of periapsis
92.9739°
True anomaly
267.15037°
Mean anomaly
267.1709°
Eccentric anomaly
267.16063°
Mean motion
3.83621 °/min
Orbital period
93.84 mins
BSTAR
0.0006148
Loading maneuver chart data...
Computing Atmospheric mass density...
Loading historical data...
Loading historical data...
Loading historical data...
Loading historical data...
Loading historical data...
Loading historical data...
Loading historical data...

Documentation

Showing up to 5 results
|